Regional Weather Roundup
Issued by NWS Newport/Morehead, NC

Current Version | Previous Version | Text Only | Print | Product List | Glossary Off
Versions: 1 2 3 4 5 6 7 8 9 10 11 12 13 14 15 16 17 18 19 20 21 22 23 24 25 26 27 28 29 30 31 32 33 34 35 36 37 38 39 40 41 42 43 44 45 46 47 48 49 50
000 ASUS42 KMHX 311013 RWRMHX WEATHER ROUNDUP FOR EASTERN NORTH CAROLINA NATIONAL WEATHER SERVICE NEWPORT/MOREHEAD CITY NC 600 AM EDT FRI JUL 31 2015 NOTE: "FAIR" INDICATES FEW OR NO CLOUDS BELOW 12,000 FEET WITH NO SIGNIFICANT WEATHER AND/OR OBSTRUCTIONS TO VISIBILITY NCZ015>017-031-032-045>047-102-103-311100- NORTH COAST CITY SKY/WX TMP DP RH WIND PRES REMARKS EDENTON N/A 78 74 88 CALM 29.88R ELIZABETH CITY CLOUDY 78 76 93 CALM 29.87S KITTY HAWK SUNNY 77 73 87 CALM 29.86S MANTEO PTCLDY 78 75 91 CALM 29.88R $$ NCZ045>047-081-094-103-104-311100- CENTRAL COAST CITY SKY/WX TMP DP RH WIND PRES REMARKS FRISCO CLEAR 77 74 90 CALM 29.86F SWANQUARTER N/A 75 N/A N/A N2 29.82S $$ NCZ095-097-098-100-101-311100- SOUTHERN COAST CITY SKY/WX TMP DP RH WIND PRES REMARKS BEAUFORT CLEAR 76 75 97 CALM 29.87R CEDAR ISLAND N/A 79 N/A N/A W2 29.88F JACKSONVILLE CLOUDY 76 74 93 S3 29.87R PINEY ISLAND SUNNY N/A N/A N/A MISG 29.86S WILMINGTON CLOUDY 77 75 93 CALM 29.87S $$ NCZ011>013-027>030-043-044-078>080-089-090>093-098-311100- COASTAL PLAIN CITY SKY/WX TMP DP RH WIND PRES REMARKS AHOSKIE PTCLDY 75 68 80 N5 29.91R CLINTON PTCLDY 76 75 96 CALM 29.89R ELIZABETHTOWN CLEAR 77 74 90 CALM 29.88S GOLDSBORO PTCLDY 78 75 91 N5 29.87R GREENVILLE PTCLDY 77 77 100 CALM 29.90R HAVELOCK PTCLDY 75 73 93 CALM 29.88R KENANSVILLE CLEAR N/A N/A N/A CALM 29.89R KINSTON PTCLDY 74 73 96 CALM 29.88S NEW BERN CLOUDY 76 73 91 CALM 29.89R RICHLANDS MOCLDY 73 68 83 CALM 29.87S ROCKY MOUNT CLEAR 76 74 93 N8 29.90R WASHINGTON HVY RAIN 76 75 95 CALM 29.88R WHITEVILLE CLEAR 76 73 91 CALM 29.88S $$ AMZ130-135-150-152-154-156-158-170-250-252-270-ANZ085-086-088-633-658-670-311100- MARINE OBSERVATIONS STATION/POSITION TIME TEMP WIND PRES WAVE SWELL AIR SEA DIR/SP/G HT/PER HT/PER (UTC) (F) (DEG/KT/KT) (MB) (FT/S) (FT/S) CHESAPEAKE LIGHT 1000 76 10/ 14/ 15 1012.6 64 E VA BEACH 0950 81 81 210/ 10/ 12 1011.1 4/ 6 3/ 6 DUCK 0900 80 62 230/ 5/ 7 1010.4 2 E DUCK 0911 69 N/A 3/10 OREGON INLET 0900 82 84 190/ 5/ 7 1011.1 13E OREGON INLT 1000 81 N/A 4/ 5 HATTERAS CG 0900 80 83 CALM 1011.0 DIAMOND BUOY 0950 82 85 CALM / 2 1010.8 4/ 7 3/ 7 CAPE LOOKOUT 1000 79 350/ 6/ 7 1011.0 BEAUFORT LAB 0900 80 83 360/ 4/ 5 1010.4 30 SE NEW RVR IN NOT AVBL 27 SE WRIGHTSVLE 0900 78 82 340/ 4/ 6 N/A 5 SE WRIGHTSVLE 0908 81 83 340/ 4/ 6 1011.2 225 S CAPE HAT 0950 83 81 220/ 25/ 31 1013.1 11/ 8 41 SE CHARLESTON 0950 84 84 250/ 12/ 14 1011.4 3/ 4 2/ 8 $$

USA.gov is the U.S. government's official web portal to all federal, state and local government web resources and services.